Voltar ao catálogo

SL-8 R/B

AtivoPO
NORAD 12508·ROCKET BODY·🇷🇺 Russia

Lançado Jun 4, 1981 de Plesetsk Cosmodrome

Loading…

Próximas Passagens (próximas 24 horas)

TLE

AtualizadoSource: Space-Track

Época: Sep 14, 2026, 03:44 UTC

1 12508U 81053B   26257.15620794  .00000066  00000-0  51162-4 0  9990
2 12508  82.9618 161.8361 0038481 121.5840 238.9082 13.76650679279654

Acompanhe SL-8 R/B em tempo real com AllMySat

Download on the App Store